Location: Forli
(44.2227°N, 12.0407°E)
Time: 12:17:50
(UTC+01:00)

Tiangong - Visible Passes

Search period start: 17 February 2026 00:00
Search period end: 27 February 2026 00:00
Orbit: 386 x 391 km, 41.5° (Epoch: 17 February)

Date Brightness Start Highest point End Pass type
(mag) Time Alt. Az. Time Alt. Az. Time Alt. Az.
17 Feb -1.3 19:14:27 10° W 19:17:30 42° S 19:18:09 36° SSE visible
18 Feb -1.4 18:15:56 10° W 18:19:01 49° S 18:22:06 10° ESE visible
18 Feb 0.1 19:52:59 10° WSW 19:54:49 21° SW 19:54:49 21° SW visible
19 Feb -0.7 18:54:15 10° W 18:57:08 32° SSW 18:59:13 16° SE visible
20 Feb 0.3 19:33:01 10° WSW 19:35:01 16° SSW 19:35:55 14° S visible
21 Feb 0.0 18:33:55 10° WSW 18:36:29 23° SSW 18:39:04 10° SSE visible
